Flag for U.S.A. Weather past 2 weeks in Springfield, Massachusetts, U.S.A.

Now
67 °F

Scattered clouds.


Feels Like: 67 °F
Forecast: 43 / 69 °F
Wind: 12 mph from Northwest

Location: Barnes Municipal Airport

Current Time: Sep 17, 2014 at 1:09:37 PM

Latest Report: Sep 17, 2014 at 11:53 AM


Visibility: 10 mi

Pressure: 30.02 "Hg

Humidity: 42%

Dew point: 43 °F

Location of SpringfieldLocation

Historic Weather in Springfield — Graph

°F

Springfield temperature yesterday

Maximum temperature yesterday: 66 °F (at 2:53 PM)
Minimum temperature yesterday: 51 °F (at 1:53 AM)
Average temperature yesterday: 57 °F

Past Weeks' High & Low Weather Summary

 TemperatureHumidityPressure
High93 °F (Sep 6, 1:53 PM)97% (Sep 13, 10:04 PM)30.37 "Hg (Sep 13, 10:04 PM)
Low42 °F (Sep 17, 5:53 AM)36% (Sep 4, 3:53 PM)29.72 "Hg (Sep 2, 11:53 PM)
Average65 °F72%30.09 "Hg
* Reported Sep 2 11:53 AM — Sep 17 11:53 AM, Springfield, Weather by CustomWeather, © 2014

Note: Actual official high and low records may vary slightly from our data, if they occured in-between our weather recording intervals... More about our weather records

Advertising

Springfield weather history for previous 24 hours

 ConditionsComfort  
Time TempWeatherWind HumidityBarometerVisibility
11:53 AM
Sep 17
67 °FScattered clouds.12 mph42%30.02 "Hg10 mi
10:53 AM66 °FSunny.5 mph42%30.03 "Hg10 mi
9:53 AM61 °FSunny.No wind60%30.04 "Hg10 mi
8:53 AM55 °FSunny.No wind77%30.05 "Hg10 mi
7:53 AM49 °FSunny.No wind86%30.05 "Hg10 mi
6:53 AM42 °FClear.No wind96%30.04 "Hg5 mi
5:53 AM42 °FClear.No wind92%30.03 "Hg10 mi
4:53 AM43 °FClear.No wind89%30.02 "Hg8 mi
3:53 AM45 °FClear.3 mph90%30.01 "Hg10 mi
2:53 AM46 °FClear.No wind93%30.02 "Hg9 mi
1:53 AM49 °FClear.5 mph90%30.02 "Hg10 mi
12:53 AM54 °FClear.No wind77%30.02 "Hg10 mi
11:53 PM
Sep 16
53 °FClear.3 mph86%30.01 "Hg10 mi
10:53 PM57 °FClear.7 mph74%30.01 "Hg10 mi
9:53 PM55 °FClear.6 mph87%30.00 "Hg10 mi
8:53 PM58 °FOvercast.No wind87%30.00 "Hg10 mi
7:53 PM62 °FOvercast.3 mph73%29.99 "Hg10 mi
6:53 PM64 °FOvercast.6 mph65%29.97 "Hg10 mi
5:53 PM65 °FOvercast.5 mph61%29.97 "Hg10 mi
4:53 PM66 °FOvercast.5 mph59%29.96 "Hg10 mi
3:53 PM66 °FOvercast.3 mph59%29.96 "Hg10 mi
2:53 PM66 °FOvercast.5 mph61%29.97 "Hg10 mi
1:53 PM65 °FMostly cloudy.No wind70%29.97 "Hg10 mi
Weather by CustomWeather, © 2014

See weather overviewHow to use our weather pages